Weather History for KHIB - December, 2013

Change the Weather History Date:

Friday, December 20, 2013

  Actual Average Record
Temperature  
Mean Temperature 2 °F -  
Max Temperature 16 °F 18 °F 39 °F (1979)
Min Temperature -11 °F 0 °F -36 °F (1983)
Degree Days  
Heating Degree Days 62    
Moisture  
Dew Point -3 °F    
Average Humidity 80    
Maximum Humidity 87    
Minimum Humidity 70    
Precipitation  
Precipitation 0.01 in - - ()
Sea Level Pressure  
Sea Level Pressure 29.98 in    
Wind  
Wind Speed 2 mph (WNW)    
Max Wind Speed 5 mph    
Max Gust Speed -    
Visibility 8 miles    
Events Snow    
Averages and records for this station are not official NWS values.
T = Trace of Precipitation, MM = Missing Value Source: NWS Daily Summary

Daily Weather History Graph

Daily Weather History Graph

Search for Another Location

Airport or City:

Trip Planner

Search our weather history database for the weather conditions in past years. The results will help you decide how hot, cold, wet, or windy it might be!

Date:

Astronomy

Dec. 20, 2013 Rise Set
Actual Time 7:55 AM CST 4:22 PM CST
Civil Twilight 7:19 AM CST 4:58 PM CST
Nautical Twilight 6:40 AM CST 5:37 PM CST
Astronomical Twilight 6:02 AM CST 6:15 PM CST
Moon 7:56 PM CST (12/20) 9:38 AM CST (12/20)
Length of Visible Light 9h 39m
Length of Day
8h 27m
Waning Gibbous, 90% of the Moon is Illuminated
Dec 20
Waning Gibbous
Dec 25
Last Quarter
Jan 1
New
Jan 7
First Quarter
Jan 15
Full

Hourly Weather History & Observations

Time (CST) Temp. Windchill Dew Point Humidity Pressure Visibility Wind Dir Wind Speed Gust Speed Precip Events Conditions
12:13 AM 5.0 °F -2.1 °F -0.4 °F 78% 30.09 in 2.5 mi North 3.5 mph - 0.00 in Snow Light Snow
12:41 AM 5.0 °F - -0.4 °F 78% 30.07 in 4.0 mi Calm Calm - 0.00 in Snow Light Snow
1:53 AM 1.0 °F -8.7 °F -2.9 °F 83% 30.18 in 10.0 mi NNW 4.6 mph - 0.00 in   Scattered Clouds
2:03 AM -0.4 °F - -4.0 °F 85% 30.06 in 9.0 mi Calm Calm - N/A   Mostly Cloudy
2:31 AM -0.4 °F -8.3 °F -5.8 °F 78% 30.06 in 10.0 mi NNW 3.5 mph - N/A   Scattered Clouds
2:53 AM -2.0 °F -10.1 °F -6.0 °F 83% 30.18 in 10.0 mi NNW 3.5 mph - N/A   Clear
4:53 AM -11.9 °F - -16.1 °F 82% 30.14 in 10.0 mi Calm Calm - N/A   Clear
8:48 AM -11.2 °F -20.6 °F -18.4 °F 70% 29.99 in 1.8 mi NNW 3.5 mph - N/A   Haze
9:26 AM -9.4 °F - -14.8 °F 77% 29.99 in 2.0 mi Calm Calm - 0.00 in   Haze
9:36 AM -7.6 °F - -11.2 °F 84% 29.99 in 3.0 mi Calm Calm - 0.00 in Snow Light Snow
9:43 AM -5.8 °F - -9.4 °F 84% 29.99 in 2.5 mi Calm Calm - 0.00 in   Overcast
9:51 AM -5.8 °F - -9.4 °F 84% 30.00 in 3.0 mi Calm Calm - 0.00 in   Overcast
11:00 AM 3.2 °F - -0.4 °F 85% 29.99 in 3.0 mi Calm Calm - 0.00 in Snow Light Snow
11:23 AM 3.2 °F - -0.4 °F 85% 29.98 in 2.5 mi Calm Calm - 0.00 in Snow Light Snow
11:30 AM 5.0 °F - -0.4 °F 78% 29.97 in 3.0 mi Calm Calm - 0.00 in Snow Light Snow
11:53 AM 6.1 °F - 1.0 °F 80% 30.07 in 4.0 mi Calm Calm - 0.01 in Snow Light Snow
12:53 PM 12.9 °F 6.9 °F 7.0 °F 77% 30.03 in 9.0 mi Variable 3.5 mph - 0.00 in   Overcast
1:18 PM 12.2 °F 6.1 °F 8.6 °F 85% 29.92 in 7.0 mi South 3.5 mph - N/A   Overcast
1:51 PM 14.0 °F 8.2 °F 8.6 °F 79% 29.90 in 10.0 mi SW 3.5 mph - N/A   Overcast
1:53 PM 14.0 °F 8.2 °F 8.1 °F 77% 30.00 in 10.0 mi SW 3.5 mph - N/A   Overcast
2:17 PM 15.8 °F 10.2 °F 8.6 °F 73% 29.88 in 10.0 mi South 3.5 mph - N/A   Scattered Clouds
2:53 PM 16.0 °F - 9.0 °F 74% 29.98 in 10.0 mi Calm Calm - N/A   Partly Cloudy
3:53 PM 12.0 °F 5.9 °F 7.0 °F 80% 29.98 in 10.0 mi SE 3.5 mph - N/A   Clear
4:53 PM 6.1 °F - 3.0 °F 87% 29.99 in 10.0 mi Calm Calm - N/A   Mostly Cloudy
5:25 PM 3.2 °F - -0.4 °F 85% 29.85 in 10.0 mi Calm Calm - N/A   Scattered Clouds
5:53 PM 1.9 °F - -2.0 °F 83% 29.98 in 10.0 mi Calm Calm - N/A   Clear
6:53 PM -0.9 °F - -7.1 °F 75% 29.98 in 10.0 mi Calm Calm - N/A   Clear
7:53 PM -2.9 °F - -8.0 °F 79% 29.97 in 10.0 mi Calm Calm - N/A   Clear
8:15 PM -2.2 °F - -7.6 °F 78% 29.83 in 10.0 mi Calm Calm - N/A   Mostly Cloudy
8:53 PM -0.0 °F - -5.1 °F 79% 29.96 in 10.0 mi Calm Calm - N/A   Overcast
9:53 PM 1.0 °F - -4.0 °F 79% 29.94 in 10.0 mi Calm Calm - N/A   Overcast
10:38 PM 1.4 °F -6.2 °F -4.0 °F 78% 29.82 in 10.0 mi NNW 3.5 mph - N/A   Partly Cloudy
10:53 PM -0.0 °F -7.9 °F -5.1 °F 79% 29.93 in 10.0 mi NW 3.5 mph - N/A   Clear
11:44 PM -0.4 °F - -5.8 °F 78% 29.81 in 10.0 mi Calm Calm - N/A   Mostly Cloudy
11:53 PM -0.0 °F - -6.0 °F 76% 29.93 in 10.0 mi Calm Calm - N/A   Overcast